Find Starlink 3677

NORAD ID: 51970 Int'l Des: 2022-025 Owner: SPXS Country: US Constellation: starlink operational
LEOCIRCULARSTARLINK_TYPE

当前视图

正在加载3D地球...

About Starlink 3677

Starlink 3677 (NORAD 51970) is a starlink constellation satellite (v1.5) launched Mar 9, 2022 by SPXS of US. It operates in LEO, CIRCULAR, STARLINK_TYPE orbit with a mass of 297.00 kg.

关于 Starlink 3677

正在加载描述...

即将过境

Passes for default location (London). Set your location on the main map for personalized predictions.

高度历史

Loading altitude history...

两行轨道根数

1 51970U 22025Q 26170.58107268 .00001205 00000-0 52800-4 0 9993
2 51970 53.1605 283.4396 0001149 71.3509 288.7616 15.30210759236438
Epoch: Jun 19, 2026 • Age: 21 hours

当前状态

高度 475.6 km
速度 7.63 km/s
星下点 24.93°N, 125.84°W
发射日期 Mar 9, 2022
运行时间 4.2 years
类型 internet

技术详情

分类 Payload
质量 297.00 kg
干质量 275.00 kg
总质量 297.00 kg
长度 0.20 m
直径 2.80 m
跨度 9.00 m
形状 Box + pan
制造商 SPXS
平台类型 Starlink
阶段状态 In Orbit
所有者/国家 SPXS/US

Most Searched